Regional Weather Roundup
Issued by NWS Upton, NY

Current Version | Previous Version | Text Only | Print | Product List | Glossary On
Versions: 1 2 3 4 5 6 7 8 9 10 11 12 13 14 15 16 17 18 19 20 21 22 23 24 25 26 27 28 29 30 31 32 33 34 35 36 37 38 39 40 41 42 43 44 45 46 47 48 49 50
000
ASUS41 KOKX 252108
RWROKX

REGIONAL WEATHER ROUNDUP
NATIONAL WEATHER SERVICE NEW YORK NY
500 PM EDT SUN SEP 25 2016

NOTE: "FAIR" INDICATES FEW OR NO CLOUDS BELOW 12,000 FEET WITH NO
SIGNIFICANT WEATHER AND/OR OBSTRUCTIONS TO VISIBILITY.

NYZ071-072-176-178-NJZ106-104-252200-
NEW YORK CITY METRO AREA

CITY           SKY/WX    TMP DP  RH WIND       PRES   REMARKS
Central Park   SUNNY     67  35  30 VRB5      30.15F
LaGuardia APRT MOSUNNY   70  34  26 N5        30.12F
Kennedy INTL   MOSUNNY   69  30  23 N13       30.13F
Newark/Liberty MOSUNNY   70  31  23 N10       30.12F
Bronx Bot Gard   N/A     68  34  28 NW2       30.12F
Wall St Helipt CLEAR     75  39  27 E3        30.13S
Teterboro      SUNNY     70  28  21 NW6       30.11F
$$

NYZ177-179-078>081-252200-
LONG ISLAND NEW YORK

CITY           SKY/WX    TMP DP  RH WIND       PRES   REMARKS
Farmingdale    SUNNY     69  32  25 NW9       30.12F
MacArthur/ISP  MOSUNNY   68  33  27 NW12      30.11S
Shirley        LGT RAIN  67  38  34 W9        30.11F
Riverhead      NOT AVBL
Westhampton    SUNNY     67  34  29 NW10      30.12F
Southampton      N/A     68  43  40 NW7       30.07S
Bridgehampton    N/A     64  46  52 N1        29.96S
East Hampton   FAIR      65  41  41 NW3       30.09F
Montauk          N/A     66  37  34 NW8       30.10F
$$

NYZ052-065-067-252200-
HUDSON VALLEY

CITY           SKY/WX    TMP DP  RH WIND       PRES   REMARKS
White Plains   SUNNY     67  31  26 NW15      30.12F
Newburgh       SUNNY     68  36  30 VRB5      30.13F
Montgomery     SUNNY     69  34  27 E3        30.12F
Poughkeepsie   SUNNY     68  30  24 NW7       30.12S
Albany         MOSUNNY   66  34  30 NW9       30.13F
$$

NJZ001-105-106-008-010-013-015-019>022-104-252200-
NEW JERSEY

CITY           SKY/WX    TMP DP  RH WIND       PRES   REMARKS
Newark/Liberty MOSUNNY   70  31  23 N10       30.12F
Teterboro      SUNNY     70  28  21 NW6       30.11F
Caldwell       SUNNY     69  36  29 E3        30.13F
Morristown     SUNNY     68  36  30 CALM      30.13F
Somerville     SUNNY     72  31  22 N7        30.11F
Linden         NOT AVBL
Sussex         SUNNY     68  34  28 VRB6G16   30.13S
Abdover          N/A     67  36  31 NW3       30.14F
Trenton        SUNNY     71  40  32 CALM      30.12F
Millville      SUNNY     71  43  36 N3        30.14F
Atlantic City  SUNNY     71  41  33 NW3       30.13F
Wrightstown    SUNNY     70  41  35 W7        30.10F
Toms River     SUNNY     68  48  48 E7        30.14S
Belmar         SUNNY     67  44  43 E5        30.14S
$$

PAZ047>061-062-071-252200-
EASTERN PENNSYLVANIA

CITY           SKY/WX    TMP DP  RH WIND       PRES   REMARKS
Philadelphia   MOSUNNY   72  39  30 NW7       30.13F
Allentown      SUNNY     71  38  29 N8        30.13F
Scranton       SUNNY     67  36  31 NE9       30.15F
$$

CTZ002-004>006-009-010-012-RIZ004-006-007-MAZ004-011-015-252200-
SOUTHERN NEW ENGLAND
 IN CT

CITY           SKY/WX    TMP DP  RH WIND       PRES   REMARKS
Bradley INTL   SUNNY     65  33  30 NW12      30.12S
Hartford       SUNNY     66  34  30 N15G22    30.10S
Danbury        SUNNY     65  30  27 N13       30.13S
Wtrbury/Oxford SUNNY     64  28  25 N16       30.14F
Bridgeport     SUNNY     70  31  23 NW14G21   30.10F
Meriden        SUNNY     69  32  25 N10       30.11S
New Haven      SUNNY     68  30  24 N12       30.11S
Chester        FAIR      66  34  30 N9G15     30.10S
Groton         SUNNY     69  37  30 NW10      30.09S
Wilimantic     SUNNY     67  33  28 NW13G18   30.10S

 IN RI

CITY           SKY/WX    TMP DP  RH WIND       PRES   REMARKS
Providence     MOSUNNY   66  32  28 N12G21    30.08S
Block Island   SUNNY     65  37  35 N9        30.09S
Westerly       SUNNY     68  34  28 N9        30.09S
 IN MA

CITY           SKY/WX    TMP DP  RH WIND       PRES   REMARKS
Boston         MOSUNNY   65  30  27 NW16G24   30.07S
Worcester      SUNNY     60  30  32 N12       30.10R
Westfield      SUNNY     65  34  31 NW16      30.11S
Provincetown   SUNNY     61  41  47 N9        30.07S
Nantucket      SUNNY     62  39  42 NW7       30.07F
$$

ANZ330-335-338-340-345-350-353-355-252200-
COASTAL MARINE OBSERVATIONS


STATION/POSITION TIME  SKY/WX   TEMP    WIND        PRES    VSBY  WAVE
                                AIR SEA DIR/SP/G                  HT/PER
                 (UTC)          (F)     (DEG/KT/KT) (MB)    (MI)  (FT/S)
NY HARB ENTRANCE 2050            66 72  310/  8/ 12 1019.9          3/10
20S FIRE ISLAND  2050            63 69  260/  4/  8 1020.1          3/11
GREAT SOUTH BAY  2030            66 71  310/ 10/ 16   N/A
23 SSW MONTAUK P 2050            63 68  280/ 10/ 12 1019.6          3/10
15 E BARNEGAT LI 2000               71                N/A           4/11
HUDSON CANYON    1950            62 69              1020.5          4/10
KINGS POINT      2036            67 73              1019.9
EXECUTION ROCKS  2045            69     330/ 10/ 16   N/A
CENTRAL LI SOUND NOT AVBL
EASTERN LI SOUND NOT AVBL
ROBBINS REEF     2048            68     350/  5/  8 1020.2
$$


>>>>>>>>>>>>>>>>>>>>>>>>>>>> KEY <<<<<<<<<<<<<<<<<<<<<<<<<<<
>                                                          <
>     SKY/WX - Sky Condition/Present Weather               <
>     TMP    - Temperature in Fahrenheit                   <
>     DP     - Dew Point in Fahrenheit                     <
>     RH     - Relative Humidity in Percent                <
>     WIND   - Direction (from) and Speed in MPH           <
>     PRES   - Mean Sea Level Pressure (inches of Hg)      <
>     WCI    - Wind Chill Index                            <
>     VSB    - VISIBILITY IN MILES                         <
>     HX     - HEAT INDEX                                  <
>     TC     - TEMPERATURE IN CELSIUS                      <
>     VRB    - VARIABLE WIND DIRECTION                     <
>                                                          <
>>>>>>>>>>>>>>>>>>>>>>>>>>>> KEY <<<<<<<<<<<<<<<<<<<<<<<<<<<




USA.gov is the U.S. government's official web portal to all federal, state and local government web resources and services.